[[{"header":{"parameterUnit":"m.s-1","parameterCategory":1,"la1":30.2991,"la2":30.254,"lo1":-89.0895,"lo2":-89.0444,"dy":0.0017,"dx":0.0017,"nx":28,"ny":28,"refTime":"2024-02-24T09:00:00:Z","depth":0,"parameterNumber":2,"parameterNumberName":"U-component_of_WINDS"},"data":[0,0,0,0,0,0,0,0,0,0,0,0,0,0,0,0,0,0,0,0,0,0,0,0,0,0,0,0,0,0,0,0,0,0,0,0,0,0,0,0,0,0,0,0,0,0,0,0,0,0,0,0,0,0,0,0,0,0,-0.7933,-0.7933,0,-0.7939,-0.7939,-0.7939,-0.794,-0.794,-0.794,-0.794,-0.7946,-0.7947,-0.7947,0,0,0,0,0,0,0,0,0,0,0,0,0,-0.7922,-0.7922,-0.7933,-0.7933,-0.7933,-0.7939,-0.7939,-0.7939,-0.794,-0.794,-0.794,-0.794,-0.7946,-0.7947,-0.7947,0,0,0,0,0,0,0,0,0,0,0,0,0,-0.7927,-0.7922,-0.7933,-0.7934,-0.7935,-0.7939,-0.7939,-0.7939,-0.794,-0.794,-0.794,-0.794,-0.7946,-0.7947,-0.7947,-0.7951,0,0,-0.7948,-0.7948,0,0,0,0,0,0,0,0,-0.7927,-0.7928,-0.7934,-0.7934,-0.7935,-0.7939,-0.7938,-0.7943,-0.794,-0.7938,-0.794,-0.794,-0.7944,-0.7945,-0.7946,-0.7951,-0.7951,-0.7948,-0.7948,-0.7948,-0.7948,0,0,0,0,0,0,0,-0.7927,-0.7927,-0.7936,-0.7934,-0.7935,-0.7935,-0.7935,-0.7939,-0.7942,-0.7938,-0.7938,-0.7939,-0.7944,-0.7946,-0.7946,-0.7951,-0.7948,-0.7948,-0.7949,-0.7949,-0.796,-0.796,0,0,0,0,0,0,-0.7926,-0.7927,-0.7935,-0.7936,-0.7931,-0.7935,-0.7936,-0.7938,-0.7941,-0.7942,-0.7939,-0.7939,-0.7945,-0.7946,-0.7946,-0.7951,-0.7948,-0.7949,-0.7949,-0.7959,-0.796,-0.796,0,0,0,0,0,0,-0.7926,-0.7927,-0.7935,-0.7931,-0.7933,-0.7935,-0.7937,-0.7938,-0.7939,-0.7942,-0.7943,-0.794,-0.7945,-0.7946,-0.795,-0.7951,-0.7949,-0.7949,-0.7959,-0.7959,-0.796,-0.796,0,0,0,0,0,0,-0.7925,-0.7927,-0.7928,-0.7932,-0.7933,-0.7938,-0.7937,-0.7938,-0.794,-0.794,-0.7943,-0.7944,-0.7945,-0.7949,-0.795,-0.7951,-0.7949,-0.7959,-0.7959,-0.796,-0.796,-0.796,-0.796,0,0,0,0,0,-0.7925,-0.7928,-0.7928,-0.7929,-0.7935,-0.7938,-0.7939,-0.7941,-0.794,-0.7941,-0.7943,-0.7944,-0.7951,-0.7949,-0.795,-0.7952,-0.7959,-0.7959,-0.796,-0.796,-0.796,-0.796,0,0,0,0,0,0,-0.7925,-0.7929,-0.7929,-0.7933,-0.7935,-0.7939,-0.7941,-0.7941,-0.7944,-0.7944,-0.7945,-0.7946,-0.795,-0.7951,-0.795,-0.7956,-0.7955,-0.7955,-0.7954,-0.7955,-0.7955,-0.7955,-0.795,0,0,0,0,0,-0.7925,-0.7928,-0.7931,-0.7935,-0.7936,-0.7938,-0.794,-0.794,-0.7943,-0.7944,-0.7946,-0.7949,-0.7951,-0.7953,-0.7956,-0.796,-0.796,-0.7961,-0.7962,-0.7962,-0.7962,-0.7964,-0.7964,-0.796,-0.796,-0.796,0,0,-0.7926,-0.7929,-0.793,-0.7935,-0.7936,-0.7939,-0.7939,-0.7942,-0.7944,-0.7945,-0.7948,-0.795,-0.7953,-0.7956,-0.7958,-0.7958,-0.7963,-0.7962,-0.7962,-0.7962,-0.7964,-0.7965,-0.7965,-0.796,-0.796,-0.796,0,0,-0.793,-0.7932,-0.7935,-0.7936,-0.7939,-0.7941,-0.7941,-0.7945,-0.7946,-0.7949,-0.795,-0.7952,-0.7957,-0.7959,-0.796,-0.7964,-0.7964,-0.7965,-0.7966,-0.7968,-0.7968,-0.7968,-0.7969,-0.797,-0.7965,-0.7965,-0.7965,0,-0.793,-0.7935,-0.7936,-0.7939,-0.7941,-0.7941,-0.7944,-0.7946,-0.795,-0.7951,-0.795,-0.7956,-0.7958,-0.7962,-0.7963,-0.7964,-0.7965,-0.7964,-0.7968,-0.7968,-0.7969,-0.797,-0.797,-0.7965,-0.7965,-0.7965,-0.7965,0,-0.7935,-0.7938,-0.794,-0.7944,-0.7945,-0.7948,-0.795,-0.7952,-0.7953,-0.7954,-0.7957,-0.796,-0.7963,-0.7964,-0.7965,-0.7968,-0.7968,-0.7968,-0.7967,-0.7969,-0.797,-0.797,-0.7965,-0.7965,-0.7965,-0.7965,0,0,-0.7939,-0.7943,-0.7943,-0.7945,-0.7948,-0.795,-0.7953,-0.7956,-0.7957,-0.796,-0.7962,-0.7966,-0.7966,-0.7967,-0.7968,-0.797,-0.7972,-0.797,-0.797,-0.797,-0.7976,-0.7976,-0.7976,-0.7973,-0.7973,-0.7973,-0.7976,0,-0.7942,-0.7947,-0.7948,-0.7953,-0.7955,-0.7956,-0.7958,-0.796,-0.7961,-0.7964,-0.7965,-0.7968,-0.7967,-0.7968,-0.797,-0.7972,-0.7974,-0.7972,-0.7975,-0.7975,-0.7974,-0.7977,-0.7977,-0.798,-0.7976,-0.7976,-0.7976,0,-0.7947,-0.7949,-0.7954,-0.7956,-0.7957,-0.7959,-0.7962,-0.7964,-0.7966,-0.7967,-0.7969,-0.797,-0.7973,-0.7972,-0.7975,-0.7974,-0.7975,-0.7976,-0.7976,-0.7977,-0.7976,-0.7977,-0.7981,-0.7981,-0.7977,-0.7977,-0.7977,0,-0.7949,-0.7953,-0.7956,-0.7957,-0.796,-0.7962,-0.7963,-0.7965,-0.7967,-0.7969,-0.797,-0.7973,-0.7974,-0.7976,-0.7978,-0.7977,-0.7981,-0.798,-0.7982,-0.7982,-0.7983,-0.7983,-0.7986,-0.7984,-0.7984,-0.7984,-0.7984,0,-0.7952,-0.7955,-0.7957,-0.7959,-0.7962,-0.7963,-0.7966,-0.7967,-0.7969,-0.7971,-0.7972,-0.7974,-0.7975,-0.7978,-0.7979,-0.7981,-0.7982,-0.7983,-0.7983,-0.7983,-0.7983,-0.7984,-0.7983,-0.7984,-0.7984,-0.7984,-0.7984,0,-0.7955,-0.7956,-0.796,-0.7962,-0.7963,-0.7965,-0.7967,-0.7969,-0.797,-0.7973,-0.7973,-0.7975,-0.7978,-0.7979,-0.7983,-0.7983,-0.7986,-0.7986,-0.7985,-0.7986,-0.7987,-0.7987,-0.7991,-0.7992,-0.7989,-0.7989,-0.7989,0,-0.7957,-0.7959,-0.7962,-0.7963,-0.7965,-0.7967,-0.7968,-0.797,-0.7971,-0.7974,-0.7975,-0.7978,-0.798,-0.7984,-0.7985,-0.7988,-0.7988,-0.7989,-0.7988,-0.7988,-0.7988,-0.7988,-0.7988,-0.799,-0.799,-0.799,-0.799,0,-0.7961,-0.7961,-0.7964,-0.7966,-0.7968,-0.797,-0.7972,-0.7973,-0.7974,-0.7976,-0.7978,-0.798,-0.7983,-0.7986,-0.7988,-0.7989,-0.799,-0.799,-0.799,-0.799,-0.7989,-0.799,-0.7986,-0.799,-0.799,-0.799,-0.799,-0.799,-0.7963,-0.7965,-0.7967,-0.7969,-0.7971,-0.7973,-0.7974,-0.7976,-0.7978,-0.798,-0.7981,-0.7983,-0.7985,-0.7989,-0.799,-0.7992,-0.7992,-0.7993,-0.7993,-0.7993,-0.7993,-0.7989,-0.7993,-0.7993,-0.7993,-0.7993,-0.7993,0,-0.7967,-0.7968,-0.797,-0.7973,-0.7975,-0.7975,-0.7977,-0.7978,-0.798,-0.7982,-0.7984,-0.7987,-0.7989,-0.7991,-0.7993,-0.7994,-0.7995,-0.7995,-0.7995,-0.7995,-0.7993,-0.7992,-0.7995,-0.7995,-0.7995,-0.7995,-0.7995,-0.7995,-0.7969,-0.7972,-0.7972,-0.7976,-0.7977,-0.798,-0.7981,-0.7982,-0.7984,-0.7987,-0.7988,-0.799,-0.7991,-0.7994,-0.7996,-0.7996,-0.7997,-0.7997,-0.7998,-0.7996,-0.7995,-0.7995,-0.7995,-0.7997,-0.7997,-0.8,-0.8,-0.8]},{"header":{"parameterUnit":"m.s-1","parameterCategory":1,"la1":30.2991,"la2":30.254,"lo1":-89.0895,"lo2":-89.0444,"dy":0.0017,"dx":0.0017,"nx":28,"ny":28,"refTime":"2024-02-24T09:00:00:Z","depth":0,"parameterNumber":3,"parameterNumberName":"V-component_of_WINDS"},"data":[0,0,0,0,0,0,0,0,0,0,0,0,0,0,0,0,0,0,0,0,0,0,0,0,0,0,0,0,0,0,0,0,0,0,0,0,0,0,0,0,0,0,0,0,0,0,0,0,0,0,0,0,0,0,0,0,0,0,2.6929,2.6929,0,2.6912,2.6912,2.6912,2.6866,2.6865,2.6864,2.6863,2.6847,2.6847,2.6848,0,0,0,0,0,0,0,0,0,0,0,0,0,2.6924,2.6924,2.6929,2.6929,2.6929,2.6912,2.6912,2.6912,2.6866,2.6865,2.6864,2.6863,2.6847,2.6847,2.6848,0,0,0,0,0,0,0,0,0,0,0,0,0,2.6918,2.6924,2.6929,2.6904,2.6902,2.6912,2.6912,2.6912,2.6867,2.6865,2.6864,2.6862,2.6847,2.6847,2.6848,2.6882,0,0,2.685,2.685,0,0,0,0,0,0,0,0,2.6919,2.6919,2.6908,2.6906,2.6903,2.689,2.6904,2.6902,2.6867,2.688,2.6863,2.6862,2.6862,2.6862,2.6862,2.6881,2.688,2.685,2.6851,2.6851,2.6851,0,0,0,0,0,0,0,2.6919,2.6919,2.6922,2.6908,2.6905,2.6894,2.6892,2.6903,2.688,2.6879,2.6875,2.6874,2.6861,2.6861,2.6861,2.688,2.685,2.6851,2.6851,2.6851,2.6926,2.6928,0,0,0,0,0,0,2.6923,2.692,2.6923,2.6922,2.6907,2.6895,2.6893,2.6896,2.6879,2.6875,2.6875,2.6872,2.6861,2.686,2.686,2.6899,2.6851,2.6851,2.6852,2.6925,2.6927,2.6928,0,0,0,0,0,0,2.6923,2.6924,2.6923,2.692,2.6919,2.6897,2.6901,2.6896,2.6896,2.6877,2.6872,2.688,2.6859,2.6859,2.6877,2.6897,2.6852,2.6852,2.6923,2.6925,2.6927,2.6976,0,0,0,0,0,0,2.6923,2.6924,2.6936,2.692,2.6919,2.694,2.6902,2.6897,2.6897,2.6893,2.688,2.6876,2.6858,2.6876,2.6877,2.6898,2.6853,2.6921,2.6924,2.6927,2.6972,2.6979,2.6986,0,0,0,0,0,2.6923,2.695,2.6937,2.6937,2.6934,2.6941,2.6941,2.6919,2.6899,2.6912,2.6899,2.6877,2.6895,2.6878,2.6879,2.69,2.6919,2.6923,2.6926,2.6969,2.6978,2.6986,0,0,0,0,0,0,2.6969,2.6948,2.6933,2.6956,2.6951,2.6933,2.6948,2.6929,2.693,2.6925,2.6899,2.6896,2.6918,2.6911,2.6892,2.6932,2.6904,2.6908,2.6936,2.6944,2.6951,2.6952,2.6854,0,0,0,0,0,2.6982,2.6989,2.697,2.6993,2.6991,2.697,2.6972,2.6956,2.695,2.6948,2.6937,2.6932,2.6936,2.694,2.6943,2.6971,2.6968,2.6986,2.6993,2.6999,2.7002,2.7017,2.7025,2.694,2.694,2.694,0,0,2.7008,2.6998,2.7004,2.7002,2.6996,2.7004,2.6969,2.6979,2.6985,2.6949,2.6965,2.6957,2.695,2.6973,2.6982,2.6968,2.7025,2.7003,2.7008,2.7008,2.7022,2.703,2.7037,2.6942,2.6942,2.6941,0,0,2.7061,2.7054,2.7071,2.7067,2.7058,2.7044,2.7049,2.7035,2.7028,2.7043,2.7017,2.7024,2.7033,2.7029,2.7028,2.7081,2.706,2.7082,2.7117,2.7132,2.7139,2.7145,2.7163,2.7171,2.7086,2.7086,2.7086,0,2.7095,2.7106,2.7083,2.7095,2.7095,2.7064,2.7082,2.7078,2.7072,2.7073,2.7056,2.7067,2.706,2.7081,2.7094,2.7095,2.7099,2.7083,2.714,2.7145,2.715,2.7168,2.7175,2.7089,2.7089,2.7088,2.7088,0,2.7149,2.7157,2.7173,2.7167,2.7169,2.7184,2.7164,2.7168,2.7153,2.7141,2.7157,2.7148,2.7149,2.7153,2.7138,2.7173,2.7164,2.7144,2.7115,2.7162,2.7178,2.7184,2.7093,2.7092,2.7091,2.709,0,0,2.7229,2.7211,2.7217,2.7214,2.7203,2.7209,2.7224,2.7224,2.7229,2.7226,2.7237,2.7246,2.7227,2.7227,2.7211,2.7224,2.7266,2.7202,2.7202,2.7214,2.7305,2.732,2.7328,2.7253,2.7254,2.7255,2.7305,0,2.7278,2.7301,2.7281,2.7308,2.7315,2.7286,2.7298,2.7293,2.7283,2.7289,2.7277,2.7284,2.7259,2.7258,2.727,2.7259,2.7284,2.7255,2.7263,2.7264,2.7266,2.7336,2.7352,2.74,2.7312,2.7313,2.7313,0,2.7339,2.7338,2.7366,2.7354,2.7356,2.7367,2.7367,2.7373,2.7367,2.7358,2.7358,2.7339,2.7352,2.7325,2.7343,2.7324,2.7326,2.7321,2.7323,2.7322,2.7291,2.7337,2.7414,2.7421,2.7323,2.7322,2.7322,0,2.7394,2.7401,2.7418,2.7417,2.7403,2.7412,2.7406,2.7399,2.7401,2.7401,2.7402,2.7404,2.7405,2.7407,2.7389,2.737,2.741,2.738,2.7403,2.7404,2.7412,2.7412,2.7491,2.7415,2.7415,2.7415,2.7415,0,2.7451,2.7469,2.7443,2.7453,2.7473,2.745,2.747,2.7462,2.7456,2.7465,2.744,2.7449,2.7425,2.7432,2.7418,2.7436,2.7436,2.743,2.7426,2.7432,2.7433,2.7433,2.7429,2.7417,2.7416,2.7416,2.7416,0,2.7516,2.7499,2.7516,2.7502,2.7499,2.7514,2.7502,2.7512,2.75,2.7512,2.7513,2.7495,2.7502,2.7484,2.7488,2.7479,2.7505,2.7496,2.7507,2.7504,2.7528,2.7526,2.7609,2.7618,2.7537,2.7538,2.7539,0,2.7553,2.7566,2.7554,2.7558,2.7554,2.7561,2.7563,2.7542,2.7545,2.754,2.755,2.7555,2.7557,2.7569,2.7557,2.756,2.7551,2.758,2.7551,2.7557,2.7551,2.755,2.7551,2.7585,2.7586,2.7587,2.7588,0,2.7621,2.7612,2.7616,2.7617,2.762,2.762,2.7618,2.7623,2.7601,2.7606,2.7612,2.7614,2.7619,2.7624,2.7624,2.7619,2.76,2.7597,2.7603,2.7608,2.7614,2.7611,2.7522,2.7595,2.7594,2.7594,2.7593,2.7593,2.7673,2.7683,2.7676,2.7682,2.7678,2.7677,2.7686,2.7675,2.768,2.7682,2.767,2.7679,2.7673,2.7672,2.7669,2.7677,2.7663,2.7671,2.7673,2.7676,2.7679,2.7614,2.7677,2.7676,2.7676,2.7676,2.7676,0,2.7739,2.7734,2.7739,2.7737,2.7741,2.7723,2.7721,2.7725,2.7734,2.773,2.7733,2.7741,2.7746,2.7735,2.7738,2.7746,2.7737,2.7748,2.7747,2.7746,2.7691,2.7686,2.7755,2.7755,2.7755,2.7755,2.7755,2.7755,2.7774,2.7791,2.7782,2.7797,2.7791,2.78,2.78,2.7799,2.7796,2.7806,2.781,2.7803,2.7796,2.7799,2.7803,2.7799,2.7802,2.7815,2.7808,2.7757,2.775,2.7742,2.7737,2.7816,2.7816,2.7862,2.7863,2.7863]}]]